Simultaneous Nadir Overpasses (SNOs) Predictions

Prediction of SNOs between GOES-17 and TERRA Satellite Orbit:

Table of predicted SNOs for the next 14.0 days since TLE Epoch: 5/11/2024
Index Date Time (GOES-17) GOES-17 Lat,Lon TERRA Lat,Lon Distance(km) Time Diff (sec)
1 05/11/2024 04:46:19 0.00,-104.70 0.04,-104.62 10.25 80
2 05/13/2024 04:29:01 -0.00,-104.70 0.87,-100.44 483.51 80
3 05/13/2024 16:48:57 0.01,-104.70 0.13,-105.29 67.17 80
4 05/15/2024 16:34:18 0.01,-104.70 -0.77,-101.12 407.86 80
5 05/16/2024 04:54:22 -0.01,-104.70 -0.27,-106.00 147.08 80
6 05/18/2024 04:34:20 -0.01,-104.71 0.59,-101.81 329.31 80
7 05/18/2024 16:54:15 0.01,-104.71 0.40,-106.65 220.79 80
8 05/20/2024 16:39:31 0.01,-104.71 -0.48,-102.46 256.74 80
9 05/21/2024 04:59:35 -0.01,-104.72 -0.55,-107.34 297.50 80
10 05/23/2024 04:39:29 -0.01,-104.72 0.34,-103.13 180.58 80
11 05/23/2024 16:59:22 0.02,-104.71 0.70,-107.96 369.32 80
